De Queen, AR

10:01 PM CDT on October 17, 2017 (GMT -0500)
Helms Sevier County

Weather History for KDEQ - December, 2011

Change the Weather History Date:

Monday, December 26, 2011

  Actual Average Record
Temperature  
Mean Temperature 45 °F 42 °F  
Max Temperature 47 °F 54 °F 77 °F (2015)
Min Temperature 42 °F 30 °F 4 °F (1983)
Degree Days  
Heating Degree Days 20 23  
Month to date heating degree days 514 567  
Since 1 July heating degree days 993 1093  
Cooling Degree Days 0 0  
Month to date cooling degree days 0 0  
Year to date cooling degree days 2521 1941  
Moisture  
Dew Point 40 °F    
Average Humidity 85    
Maximum Humidity 100    
Minimum Humidity 70    
Precipitation  
Precipitation 0.30 in 0.17 in 2.75 in (1987)
Month to date precipitation 3.83 3.50  
Year to date precipitation 36.57 48.13  
Snow  
Snow 0.00 in - - ()
Month to date snowfall 0.0  
Since 1 July snowfall 0.0  
Snow Depth 0.00 in    
Sea Level Pressure  
Sea Level Pressure 30.08 in    
Wind  
Wind Speed 4 mph (WSW)    
Max Wind Speed 20 mph    
Max Gust Speed 25 mph    
Visibility 9 miles    
Events Rain    
T = Trace of Precipitation, MM = Missing Value Source: NWS Daily Summary

Daily Weather History Graph

Daily Weather History Graph

Search for Another Location

Airport or City:

Trip Planner

Search our weather history database for the weather conditions in past years. The results will help you decide how hot, cold, wet, or windy it might be!

Date:

Astronomy

Dec. 26, 2011 Rise Set
Actual Time 7:21 AM CST 5:14 PM CST
Civil Twilight 6:53 AM CST 5:42 PM CST
Nautical Twilight 6:22 AM CST 6:14 PM CST
Astronomical Twilight 5:51 AM CST 6:44 PM CST
Moon 8:46 AM CST (12/26) 7:38 PM CST (12/26)
Length of Visible Light 10h 49m
Length of Day
9h 53m
Waxing Crescent, 5% of the Moon is Illuminated
Dec 26
Waxing Crescent
Jan 1
First Quarter
Jan 9
Full
Jan 16
Last Quarter
Jan 23
New

Hourly Weather History & Observations

Time (CST) Temp. Windchill Dew Point Humidity Pressure Visibility Wind Dir Wind Speed Gust Speed Precip Events Conditions
12:53 AM 45.0 °F - 42.1 °F 90% 30.26 in 10.0 mi Calm Calm - 0.00 in Rain Light Rain
1:53 AM 46.0 °F - 42.1 °F 86% 30.26 in 10.0 mi Calm Calm - 0.00 in Rain Light Rain
2:53 AM 46.0 °F - 43.0 °F 89% 30.24 in 10.0 mi Calm Calm - 0.00 in   Overcast
3:53 AM 46.0 °F - 43.0 °F 89% 30.24 in 10.0 mi Calm Calm - 0.00 in   Overcast
4:53 AM 45.0 °F 43.5 °F 42.1 °F 90% 30.20 in 10.0 mi NE 3.5 mph - 0.00 in   Overcast
5:53 AM 46.0 °F - 39.9 °F 79% 30.19 in 10.0 mi Calm Calm - N/A   Overcast
6:53 AM 46.0 °F - 37.9 °F 73% 30.18 in 10.0 mi Calm Calm - 0.00 in Rain Light Rain
7:30 AM 46.4 °F 40.7 °F 32.0 °F 57% 30.16 in 10.0 mi NE 12.7 mph 19.6 mph 0.00 in   Overcast
7:53 AM 46.9 °F - 30.9 °F 54% 30.14 in 10.0 mi ENE 11.5 mph - 0.00 in   Overcast
8:30 AM 44.6 °F 38.8 °F 35.6 °F 71% 30.15 in 10.0 mi ENE 11.5 mph - 0.00 in   Overcast
8:53 AM 44.1 °F 40.1 °F 36.0 °F 73% 30.15 in 10.0 mi East 6.9 mph - 0.00 in   Overcast
9:38 AM 42.8 °F 40.1 °F 39.2 °F 87% 30.17 in 5.0 mi NNE 4.6 mph - 0.00 in Rain Light Rain
9:53 AM 42.1 °F 40.2 °F 39.9 °F 92% 30.17 in 6.0 mi NNE 3.5 mph - 0.00 in Rain Light Rain
10:13 AM 42.8 °F 40.1 °F 39.2 °F 87% 30.16 in 3.0 mi North 4.6 mph - 0.01 in Rain Light Rain
10:43 AM 42.8 °F 37.5 °F 41.0 °F 93% 30.13 in 10.0 mi NE 9.2 mph - 0.02 in Rain Light Rain
10:53 AM 42.1 °F 38.4 °F 41.0 °F 96% 30.12 in 10.0 mi NNE 5.8 mph - 0.02 in Rain Light Rain
11:31 AM 42.8 °F 37.5 °F 39.2 °F 87% 30.09 in 7.0 mi NE 9.2 mph - 0.03 in Rain Light Rain
11:53 AM 42.1 °F 39.2 °F 41.0 °F 96% 30.09 in 6.0 mi NE 4.6 mph - 0.07 in Rain Rain
12:53 PM 42.1 °F - 41.0 °F 96% 30.04 in 10.0 mi Calm Calm - 0.09 in Rain Light Rain
1:16 PM 42.8 °F - 41.0 °F 93% 30.05 in 2.5 mi Calm Calm - 0.03 in Rain Heavy Rain
1:26 PM 42.8 °F - 41.0 °F 93% 30.03 in 4.0 mi Calm Calm - 0.07 in Rain Light Rain
1:53 PM 42.1 °F - 41.0 °F 96% 30.00 in 4.0 mi Calm Calm - 0.10 in Rain Rain
2:53 PM 43.0 °F - 41.0 °F 93% 29.99 in 5.0 mi Calm Calm - 0.02 in Rain Light Rain
4:11 PM 42.8 °F 40.1 °F 41.0 °F 93% 29.99 in 10.0 mi WSW 4.6 mph - N/A   Overcast
4:53 PM 43.0 °F 40.3 °F 42.1 °F 97% 29.99 in 10.0 mi SW 4.6 mph - N/A   Overcast
5:25 PM 42.8 °F 40.1 °F 41.0 °F 93% 29.98 in 10.0 mi SW 4.6 mph - N/A   Overcast
5:53 PM 43.0 °F 40.3 °F 42.1 °F 97% 29.98 in 10.0 mi SSW 4.6 mph - N/A   Overcast
6:53 PM 43.0 °F 38.8 °F 42.1 °F 97% 29.98 in 10.0 mi SW 6.9 mph - N/A   Overcast
7:24 PM 42.8 °F 38.6 °F 41.0 °F 93% 29.99 in 10.0 mi SW 6.9 mph - N/A   Overcast
7:34 PM 42.8 °F 38.6 °F 41.0 °F 93% 29.99 in 8.0 mi SW 6.9 mph - N/A   Overcast
7:53 PM 42.1 °F 36.6 °F 41.0 °F 96% 29.99 in 10.0 mi WSW 9.2 mph - N/A   Overcast
8:09 PM 42.8 °F 38.0 °F 41.0 °F 93% 30.00 in 10.0 mi SW 8.1 mph - N/A   Overcast
8:53 PM 42.1 °F 38.4 °F 41.0 °F 96% 29.99 in 10.0 mi WSW 5.8 mph - 0.00 in Rain Light Rain
9:00 PM 42.8 °F 40.1 °F 41.0 °F 93% 29.99 in 10.0 mi WSW 4.6 mph - 0.00 in Rain Light Rain
9:10 PM 42.8 °F 41.1 °F 41.0 °F 93% 29.99 in 10.0 mi SW 3.5 mph - 0.00 in Rain Light Rain
9:53 PM 43.0 °F 39.5 °F 42.1 °F 97% 29.99 in 10.0 mi WSW 5.8 mph - 0.00 in   Overcast
10:53 PM 44.1 °F 40.1 °F 42.1 °F 93% 29.98 in 10.0 mi SW 6.9 mph - 0.00 in   Overcast
11:53 PM 44.1 °F 39.0 °F 42.1 °F 93% 29.97 in 8.0 mi SW 9.2 mph - N/A   Overcast